Alabaster, AL

7:23 AM CDT on October 16, 2019 (GMT -0500)
Shelby County

Weather History for KEET - August, 2019

Change the Weather History Date:

Thursday, August 22, 2019

  Actual Average Record
Temperature  
Mean Temperature 82 °F 80 °F  
Max Temperature 93 °F 90 °F 102 °F (2007)
Min Temperature 71 °F 70 °F 55 °F (1973)
Cooling Degree Days 17 15  
Month to date cooling degree days 410 342  
Year to date cooling degree days 1699 1472  
Since 1 June cooling degree days 1302 1203  
Growing Degree Days 31 (Base 50)    
Moisture  
Dew Point 70 °F    
Average Humidity 69    
Maximum Humidity 93    
Minimum Humidity 44    
Precipitation  
Precipitation 0.00 in 0.16 in 2.00 in (1971)
Month to date precipitation 0.79 3.41  
Year to date precipitation 32.07 36.73  
Sea Level Pressure  
Sea Level Pressure 30.02 in    
Wind  
Wind Speed 3 mph (South)    
Max Wind Speed 10 mph    
Max Gust Speed 15 mph    
Visibility 10 miles    
Events Thunderstorm    
T = Trace of Precipitation, MM = Missing Value Source: NWS Daily Summary

Daily Weather History Graph

Daily Weather History Graph

Search for Another Location

Airport or City:

Astronomy

Aug. 22, 2019 Rise Set
Actual Time 6:14 AM CDT 7:24 PM CDT
Civil Twilight 5:48 AM CDT 7:50 PM CDT
Nautical Twilight 5:18 AM CDT 8:21 PM CDT
Astronomical Twilight 4:46 AM CDT 8:52 PM CDT
Moon 11:35 PM CDT (8/22) 12:29 PM CDT (8/22)
Length of Visible Light 14h 01m
Length of Day
13h 10m
Waning Gibbous, 59% of the Moon is Illuminated
Aug 22
Waning Gibbous
Aug 23
Last Quarter
Aug 30
New
Sep 5
First Quarter
Sep 13
Full

Hourly Weather History & Observations

Time (CDT) Temp. Heat Index Dew Point Humidity Pressure Visibility Wind Dir Wind Speed Gust Speed Precip Events Conditions
12:53 AM 75.9 °F - 70.0 °F 82% 30.03 in 10.0 mi SSE 3.5 mph - N/A   Clear
1:53 AM 73.9 °F - 69.1 °F 85% 30.01 in 10.0 mi South 4.6 mph - N/A   Clear
2:53 AM 72.0 °F - 69.1 °F 91% 30.02 in 10.0 mi Calm Calm - N/A   Clear
3:53 AM 72.0 °F - 69.1 °F 91% 30.03 in 10.0 mi Calm Calm - N/A   Clear
4:53 AM 71.1 °F - 69.1 °F 93% 30.04 in 10.0 mi Calm Calm - N/A   Clear
5:53 AM 71.1 °F - 69.1 °F 93% 30.06 in 10.0 mi Calm Calm - N/A   Clear
6:53 AM 72.0 °F - 69.1 °F 91% 30.07 in 10.0 mi Calm Calm - N/A   Clear
7:53 AM 75.0 °F - 70.0 °F 84% 30.08 in 10.0 mi Calm Calm - N/A   Clear
8:51 AM 77.0 °F - 71.6 °F 83% 30.10 in 10.0 mi Calm Calm - N/A   Partly Cloudy
8:53 AM 77.0 °F - 71.1 °F 82% 30.08 in 10.0 mi South 3.5 mph - N/A   Partly Cloudy
9:50 AM 82.4 °F 87.2 °F 71.6 °F 70% 30.09 in 10.0 mi Calm Calm - N/A   Mostly Cloudy
9:53 AM 82.0 °F 86.7 °F 72.0 °F 71% 30.07 in 10.0 mi ENE 3.5 mph - N/A   Mostly Cloudy
10:08 AM 82.0 °F 86.3 °F 71.1 °F 69% 30.08 in 10.0 mi Calm Calm - N/A   Scattered Clouds
10:53 AM 84.0 °F 87.0 °F 68.0 °F 58% 30.05 in 10.0 mi Calm Calm - N/A   Mostly Cloudy
11:53 AM 86.0 °F 89.4 °F 68.0 °F 55% 30.04 in 10.0 mi Variable 5.8 mph - N/A   Mostly Cloudy
12:53 PM 88.0 °F 91.4 °F 68.0 °F 51% 30.03 in 10.0 mi Calm Calm - N/A   Overcast
1:53 PM 90.0 °F 92.8 °F 66.9 °F 46% 30.00 in 10.0 mi SSW 9.2 mph - N/A   Scattered Clouds
2:53 PM 90.0 °F 91.7 °F 64.9 °F 43% 29.97 in 10.0 mi SSE 5.8 mph - N/A   Partly Cloudy
3:53 PM 91.0 °F 95.2 °F 68.0 °F 47% 29.96 in 10.0 mi Variable 5.8 mph - N/A   Clear
4:53 PM 91.9 °F 95.9 °F 68.0 °F 45% 29.96 in 10.0 mi SSW 8.1 mph - N/A   Partly Cloudy
5:35 PM 90.0 °F 93.6 °F 68.0 °F 48% 29.98 in 10.0 mi Variable 3.5 mph - N/A Thunderstorm Clear
5:53 PM 91.0 °F 95.2 °F 68.0 °F 47% 29.94 in 10.0 mi NW 4.6 mph - N/A Thunderstorm Scattered Clouds
6:24 PM 89.1 °F 94.1 °F 70.0 °F 53% 29.97 in 10.0 mi North - - N/A   Mostly Cloudy
6:53 PM 88.0 °F 93.8 °F 71.1 °F 57% 29.94 in 10.0 mi SSE 6.9 mph - N/A   Scattered Clouds
7:53 PM 82.9 °F 88.0 °F 72.0 °F 69% 29.96 in 10.0 mi Calm Calm - N/A   Partly Cloudy
8:26 PM 81.0 °F 85.2 °F 72.0 °F 74% 29.99 in 10.0 mi South 4.6 mph - N/A Thunderstorm Clear
8:51 PM 82.4 °F 86.3 °F 69.8 °F 66% 30.00 in 10.0 mi South 5.8 mph - N/A   Partly Cloudy
8:53 PM 82.0 °F 85.9 °F 70.0 °F 67% 29.98 in 10.0 mi South 5.8 mph - N/A   Partly Cloudy
9:53 PM 80.1 °F 83.6 °F 71.1 °F 74% 30.01 in 10.0 mi Calm Calm - N/A   Partly Cloudy
10:53 PM 78.1 °F - 72.0 °F 81% 30.01 in 10.0 mi South 3.5 mph - N/A   Clear
11:53 PM 78.1 °F - 72.0 °F 81% 30.01 in 10.0 mi Calm Calm - N/A   Scattered Clouds